Regional Weather Roundup
Issued by NWS

Home | Current Version | Previous Version | Graphics & Text | Print | Product List | Glossary On
Versions: 1 2 3 4 5 6 7 8 9 10 11 12 13 14 15 16 17 18 19 20 21 22 23 24 25 26 27 28 29 30 31 32 33 34 35 36 37 38 39 40 41 42 43 44 45 46 47 48 49 50
000
ASUS43 KDTX 031810
RWRMI
MICHIGAN HOURLY REGIONAL WEATHER ROUNDUP
NATIONAL WEATHER SERVICE DETROIT/PONTIAC MI
ISSUED BY NATIONAL WEATHER SERVICE GRAND RAPIDS MI
200 PM EDT THU SEP 03 2015

NOTE: "FAIR" INDICATES FEW OR NO CLOUDS BELOW 12,000 FEET WITH NO
SIGNIFICANT WEATHER AND/OR OBSTRUCTION TO VISIBILITY.

MIZ047>049-052>055-059>063-066>070-074>076-081>083-031900-
SOUTHEAST LOWER MICHIGAN

CITY           SKY/WX    TMP DP  RH WIND       PRES   REMARKS
ADRIAN         MOSUNNY   87  67  51 W7        29.95F HX  90
6HR MIN TEMP:  71; 6HR MAX TEMP:  89;

ALMA           CLOUDY    72  71  96 S6        29.92F
ANN ARBOR      PTSUNNY   85  69  58 W10       29.93F
BAD AXE        RAIN      67  66  97 CALM      30.00S
6HR MIN TEMP:  65; 6HR MAX TEMP:  77;

DETROIT CITY   PTSUNNY   88  70  55 SW10      29.92F HX  93
6HR MIN TEMP:  71; 6HR MAX TEMP:  88;

DETROIT        PTSUNNY   89  69  51 S12       29.93F THUNDER HX  93
6HR MIN TEMP:  72; 6HR MAX TEMP:  89;

FLINT          CLOUDY    73  66  78 NE6       29.96S
6HR MIN TEMP:  70; 6HR MAX TEMP:  86; 6HR PCP:  0.89;

GROSSE ILE     MOSUNNY   81  73  78 SE9       29.92F HAZE
HILLSDALE      MOSUNNY   87  67  51 SW13      29.97F HX  90
6HR MIN TEMP:  71; 6HR MAX TEMP:  88;

HOWELL         LGT RAIN  77  71  81 CALM      29.95S
6HR MIN TEMP:  70; 6HR MAX TEMP:  88;


CITY           SKY/WX    TMP DP  RH WIND       PRES   REMARKS
JACKSON        PTSUNNY   84  69  60 SW10      29.95F
6HR MIN TEMP:  68; 6HR MAX TEMP:  85;

LANSING        CLOUDY    75  69  81 CALM      29.94F
6HR MIN TEMP:  70; 6HR MAX TEMP:  81; 6HR PCP:  0.14;

MASON          CLOUDY    76  71  82 CALM      29.94F
MONROE         MOSUNNY   89  68  49 S9        29.92F HX  93
6HR MIN TEMP:  68; 6HR MAX TEMP:  90;

MT. CLEMENS    TSTM      83  71  68 VRB3      29.92F
6HR MIN TEMP:  67; 6HR MAX TEMP:  86; 6HR PCP: TRACE;

PONTIAC        TSTM      74  65  73 NW9G24    29.96R
PORT HOPE        N/A     68  66  93 CALM      29.97F
6HR MIN TEMP:  67; 6HR MAX TEMP:  71; 6HR PCP:  0.13;

PORT HURON     PTSUNNY   86  70  58 W3        29.94S HX  90
TRI CITIES     HVY RAIN  69  66  90 E9        29.95F FOG
6HR MIN TEMP:  68; 6HR MAX TEMP:  76; 6HR PCP:  1.02;

YPSILANTI      PTSUNNY   86  71  60 SW7       29.93F HX  91
6HR MIN TEMP:  71; 6HR MAX TEMP:  93; 6HR PCP: TRACE;

$$
MIZ043>046-050>051-056>058-064>065-071>073-077>080-031900-
SOUTHWEST LOWER MICHIGAN

CITY           SKY/WX    TMP DP  RH WIND       PRES   REMARKS
BATTLE CREEK   PTSUNNY   85  70  60 W10       29.95S
6HR MIN TEMP:  71; 6HR MAX TEMP:  85;

BENTON HARBOR  PTSUNNY   85  70  60 W15       29.94F
6HR MIN TEMP:  70; 6HR MAX TEMP:  86;

BIG RAPIDS     CLOUDY    73  71  96 CALM      29.91F FOG
6HR MIN TEMP:  65; 6HR MAX TEMP:  73; 6HR PCP:  0.85;

COLDWATER      MOSUNNY   88  66  47 SW9       29.96F HX  90
6HR MIN TEMP:  71; 6HR MAX TEMP:  88;

HOLLAND        PTSUNNY   82  71  69 W13       29.93F
6HR MIN TEMP:  74; 6HR MAX TEMP:  82;

GRAND RAPIDS   LGT RAIN  77  74  90 W7        29.92F FOG
6HR MIN TEMP:  71; 6HR MAX TEMP:  79; 6HR PCP:  0.54;

KALAMAZOO      MOSUNNY   87  68  52 SW15      29.94F HX  90
6HR MIN TEMP:  71; 6HR MAX TEMP:  88;

MARSHALL       PTSUNNY   84  73  68 S5        29.94F HX  90
6HR MIN TEMP:  69; 6HR MAX TEMP:  86;

MOUNT PLEASANT RAIN      70  68  93 NE6       29.93S
6HR MIN TEMP:  68; 6HR MAX TEMP:  71; 6HR PCP:  0.54;

MUSKEGON       PTSUNNY   80  69  69 W9        29.92F
6HR MIN TEMP:  74; 6HR MAX TEMP:  80; 6HR PCP: TRACE;

STURGIS        CLOUDY    84  70  61 W7        29.96S
$$
MIZ016>042-031900-
NORTHERN LOWER MICHIGAN

CITY           SKY/WX    TMP DP  RH WIND       PRES   REMARKS
ALPENA         RAIN      67  66  97 SE8       29.96F FOG
6HR MIN TEMP:  64; 6HR MAX TEMP:  71; 6HR PCP:  0.25;

BEAVER ISLAND  MOSUNNY   76  65  69 E8        29.95S
6HR MIN TEMP:  66; 6HR MAX TEMP:  76;

BELLAIRE       CLOUDY    70  66  85 NE7       29.94R
6HR MIN TEMP:  65; 6HR MAX TEMP:  71;

CADILLAC       CLOUDY    70  68  93 NE3       29.93F
CHARLEVOIX     CLOUDY    71  66  83 E8        29.97R
6HR MIN TEMP:  66; 6HR MAX TEMP:  71;

GAYLORD        CLOUDY    65  65 100 VRB6      29.97S
6HR MIN TEMP:  64; 6HR MAX TEMP:  67; 6HR PCP:  0.56;

HOUGHTON LAKE  CLOUDY    68  66  93 E6        29.95F
6HR MIN TEMP:  65; 6HR MAX TEMP:  68; 6HR PCP:  1.18;

MANISTEE       CLOUDY    68  64  88 W5        29.92S VSB 1
OSCODA         LGT RAIN  68  67  97 SE6       29.96S
6HR MIN TEMP:  65; 6HR MAX TEMP:  73; 6HR PCP:  0.42;

PELLSTON       CLOUDY    73  67  81 SE8       29.95S
6HR MIN TEMP:  65; 6HR MAX TEMP:  75; 6HR PCP:  0.39;

TRAVERSE CITY  HVY RAIN  70  67  90 E6        29.92R VSB 1
6HR MIN TEMP:  69; 6HR MAX TEMP:  71; 6HR PCP:  0.24;

LUDINGTON      CLOUDY    71  68  92 NW6       29.92F FOG
6HR MIN TEMP:  71; 6HR MAX TEMP:  76; 6HR PCP:  0.06;

$$
MIZ007>008-015-031900-
EASTERN UPPER MICHIGAN

CITY           SKY/WX    TMP DP  RH WIND       PRES   REMARKS
KINROSS        PTSUNNY   75  64  69 E8        29.98S
6HR MIN TEMP:  64; 6HR MAX TEMP:  75;

MACKINAC ISLAN CLOUDY    70  63  79 E10G17    29.97R
6HR MIN TEMP:  64; 6HR MAX TEMP:  70; 6HR PCP:  0.18;

NEWBERRY       MOSUNNY   80  64  57 E9        29.96F
6HR MIN TEMP:  64; 6HR MAX TEMP:  80;

S. S. MARIE    CLOUDY    78  63  59 VRB3      29.97S
6HR MIN TEMP:  66; 6HR MAX TEMP:  79;

$$
MIZ004>006-011>014-085-031900-
CENTRAL UPPER MICHIGAN

CITY           SKY/WX    TMP DP  RH WIND       PRES   REMARKS
MANISTIQUE     MOSUNNY   78  67  69 E6        29.95S
6HR MIN TEMP:  66; 6HR MAX TEMP:  78;

ESCANABA       PTSUNNY   77  66  69 E9        29.94S
6HR MIN TEMP:  66; 6HR MAX TEMP:  77;

MENOMINEE      CLOUDY    73  64  73 E10       29.95S
6HR MIN TEMP:  66; 6HR MAX TEMP:  73; 6HR PCP:  0.02;

$$
MIZ001>003-009>011-084-031900-
WESTERN UPPER MICHIGAN

CITY           SKY/WX    TMP DP  RH WIND       PRES   REMARKS
IRON MOUNTAIN  CLOUDY    74  64  71 NE5       29.97F
6HR MIN TEMP:  65; 6HR MAX TEMP:  74;

HOUGHTON       SUNNY     76  57  51 E9        29.99F
6HR MIN TEMP:  60; 6HR MAX TEMP:  76;

COPPER HARBOR    N/A     65  58  78 VRB5      29.98F
6HR MIN TEMP:  56; 6HR MAX TEMP:  65;

IRONWOOD       SUNNY     79  61  53 E7        29.96F
6HR MIN TEMP:  57; 6HR MAX TEMP:  79;

$$

ABBREVIATIONS USED IN REMARKS
   TC - TEMPERATURE IN CELSIUS
  WCI - WIND CHILL INDEX
   HX - HEAT INDEX
  VSB - VISIBILITY



USA.gov is the U.S. government's official web portal to all federal, state and local government web resources and services.